Flag for U.S.A. Weather past 2 weeks in Oakland, California, U.S.A.

Now
62 °F

Clear.


Feels Like: 62 °F
Forecast: 57 / 83 °F
Wind: 7 mph from Northwest

Location: Metro Oakland International Airport

Current Time: Jul 28, 2015 at 1:52:21 AM

Latest Report: Jul 28, 2015 at 12:53 AM


Visibility: 10 mi

Pressure: 29.88 "Hg

Humidity: 78%

Dew point: 55 °F

Location of OaklandLocation

Historic Weather in Oakland — Graph

°F

Oakland temperature yesterday

Maximum temperature yesterday: 80 °F (at 1:53 PM)
Minimum temperature yesterday: 57 °F (at 5:53 AM)
Average temperature yesterday: 67 °F

Past Weeks' High & Low Weather Summary

 TemperatureHumidityPressure
High86 °F (Jul 19, 2:53 PM)90% (Jul 21, 5:53 AM)30.13 "Hg (Jul 21, 5:53 AM)
Low57 °F (Jul 27, 5:53 AM)35% (Jul 19, 2:53 PM)29.78 "Hg (Jul 17, 7:53 PM)
Average66 °F71%29.95 "Hg
* Reported Jul 13 12:53 AM — Jul 28 12:53 AM, Oakland, Weather by CustomWeather, © 2015

Note: Actual official high and low records may vary slightly from our data, if they occured in-between our weather recording intervals... More about our weather records

Advertising

Oakland weather history for previous 24 hours

 ConditionsComfort  
Time TempWeatherWind HumidityBarometerVisibility
12:53 AM
Tue, Jul 28
62 °FClear.7 mph78%29.88 "Hg10 mi
11:53 PM
Mon, Jul 27
62 °FClear.9 mph78%29.89 "Hg10 mi
10:53 PM62 °FClear.6 mph75%29.90 "Hg10 mi
9:53 PM63 °FClear.7 mph73%29.90 "Hg10 mi
8:53 PM65 °FSunny.7 mph68%29.89 "Hg10 mi
7:53 PM68 °FSunny.12 mph63%29.89 "Hg10 mi
6:53 PM72 °FSunny.14 mph53%29.89 "Hg10 mi
5:53 PM74 °FSunny.13 mph52%29.89 "Hg10 mi
4:53 PM75 °FSunny.15 mph50%29.90 "Hg10 mi
3:53 PM78 °FSunny.18 mph40%29.91 "Hg10 mi
1:53 PM80 °FSunny.14 mph38%29.94 "Hg10 mi
12:53 PM79 °FSunny.10 mph44%29.94 "Hg10 mi
11:53 AM76 °FSunny.7 mph47%29.96 "Hg10 mi
10:53 AM69 °FSunny.6 mph68%29.96 "Hg10 mi
9:53 AM67 °FSunny.7 mph71%29.96 "Hg10 mi
8:53 AM66 °FSunny.3 mph70%29.96 "Hg10 mi
7:53 AM64 °FSunny.3 mph75%29.96 "Hg10 mi
6:53 AM62 °FClear.8 mph83%29.94 "Hg7 mi
5:53 AM57 °FPassing clouds.6 mph87%29.92 "Hg7 mi
4:53 AM59 °FPassing clouds.No wind84%29.92 "Hg10 mi
3:53 AM58 °FPassing clouds.3 mph84%29.91 "Hg10 mi
2:53 AM58 °FClear.5 mph84%29.91 "Hg10 mi
1:53 AM61 °FClear.9 mph78%29.92 "Hg10 mi
Weather by CustomWeather, © 2015

See weather overviewHow to use our weather pages